PRIVATE WETTERSTATION BILLIGHEIM-ALLFELD                       ZURCK
Wetterdaten: Donnerstag, 21.08.2014
Datum Zeit Temp. A. Temp. A. min Temp. A. max Feuchte A. Luftdruck Regen Wind Richtung Richtung Sonnenschein ET Solar Taupunkt Windchill Windben Empfang
21.08.2014 00:00 12,1 C 12,1 C 12,2 C 85 % 1015,7 hPa 0,0 l/m 0,0 km/h (0 Bft) SW 233 0 min 0,000 mm 0 W/m 9,7 C 12,1 C 0,0 km/h (0 Bft) 99 %
21.08.2014 00:10 12,1 C 12,1 C 12,1 C 85 % 1015,7 hPa 0,0 l/m 0,0 km/h (0 Bft) SW 233 0 min 0,000 mm 0 W/m 9,7 C 12,1 C 0,0 km/h (0 Bft) 100 %
21.08.2014 00:20 11,9 C 11,9 C 12,1 C 86 % 1015,8 hPa 0,0 l/m 0,0 km/h (0 Bft) SW 233 0 min 0,000 mm 0 W/m 9,6 C 11,9 C 0,0 km/h (0 Bft) 100 %
21.08.2014 00:30 11,7 C 11,7 C 11,9 C 83 % 1015,8 hPa 0,0 l/m 0,2 km/h (0 Bft) SW 233 0 min 0,000 mm 0 W/m 8,9 C 11,7 C 3,2 km/h (1 Bft) 100 %
21.08.2014 00:40 11,9 C 11,7 C 11,9 C 81 % 1015,8 hPa 0,0 l/m 0,1 km/h (0 Bft) SW 233 0 min 0,000 mm 0 W/m 8,7 C 11,9 C 3,2 km/h (1 Bft) 100 %
21.08.2014 00:50 12,1 C 11,9 C 12,1 C 84 % 1015,8 hPa 0,0 l/m 0,0 km/h (0 Bft) SW 233 0 min 0,000 mm 0 W/m 9,5 C 12,1 C 1,6 km/h (1 Bft) 100 %
21.08.2014 01:00 12,1 C 12,1 C 12,1 C 84 % 1015,8 hPa 0,0 l/m 0,0 km/h (0 Bft) SW 233 0 min 0,000 mm 0 W/m 9,5 C 12,1 C 1,6 km/h (1 Bft) 99 %
21.08.2014 01:10 11,8 C 11,8 C 12,1 C 84 % 1015,8 hPa 0,0 l/m 0,0 km/h (0 Bft) SW 233 0 min 0,000 mm 0 W/m 9,2 C 11,8 C 0,0 km/h (0 Bft) 99 %
21.08.2014 01:20 11,6 C 11,6 C 11,8 C 84 % 1015,9 hPa 0,0 l/m 0,0 km/h (0 Bft) SW 233 0 min 0,000 mm 0 W/m 9,0 C 11,6 C 0,0 km/h (0 Bft) 100 %
21.08.2014 01:30 11,3 C 11,3 C 11,6 C 85 % 1015,9 hPa 0,0 l/m 0,1 km/h (0 Bft) SW 233 0 min 0,000 mm 0 W/m 8,9 C 11,3 C 1,6 km/h (1 Bft) 100 %
21.08.2014 01:40 11,3 C 11,3 C 11,3 C 84 % 1016,1 hPa 0,0 l/m 0,2 km/h (0 Bft) SW 233 0 min 0,000 mm 0 W/m 8,7 C 11,3 C 3,2 km/h (1 Bft) 100 %
21.08.2014 01:50 11,5 C 11,3 C 11,5 C 84 % 1016,1 hPa 0,0 l/m 0,0 km/h (0 Bft) SW 233 0 min 0,000 mm 0 W/m 8,9 C 11,5 C 0,0 km/h (0 Bft) 100 %
21.08.2014 02:00 11,4 C 11,4 C 11,5 C 85 % 1016,0 hPa 0,0 l/m 0,0 km/h (0 Bft) SW 233 0 min 0,000 mm 0 W/m 9,0 C 11,4 C 1,6 km/h (1 Bft) 99 %
21.08.2014 02:10 11,5 C 11,4 C 11,5 C 85 % 1016,1 hPa 0,0 l/m 0,0 km/h (0 Bft) SW 233 0 min 0,000 mm 0 W/m 9,1 C 11,5 C 1,6 km/h (1 Bft) 100 %
21.08.2014 02:20 11,4 C 11,4 C 11,5 C 85 % 1016,2 hPa 0,0 l/m 0,0 km/h (0 Bft) SW 233 0 min 0,000 mm 0 W/m 9,0 C 11,4 C 0,0 km/h (0 Bft) 100 %
21.08.2014 02:30 11,3 C 11,3 C 11,4 C 86 % 1016,1 hPa 0,0 l/m 0,1 km/h (0 Bft) SW 233 0 min 0,000 mm 0 W/m 9,0 C 11,3 C 1,6 km/h (1 Bft) 99 %
21.08.2014 02:40 11,2 C 11,2 C 11,3 C 85 % 1016,1 hPa 0,0 l/m 0,2 km/h (0 Bft) SW 233 0 min 0,000 mm 0 W/m 8,8 C 11,2 C 3,2 km/h (1 Bft) 99 %
21.08.2014 02:50 11,3 C 11,2 C 11,3 C 85 % 1016,2 hPa 0,0 l/m 0,0 km/h (0 Bft) SW 233 0 min 0,000 mm 0 W/m 8,9 C 11,3 C 1,6 km/h (1 Bft) 100 %
21.08.2014 03:00 11,4 C 11,3 C 11,4 C 85 % 1016,1 hPa 0,0 l/m 0,0 km/h (0 Bft) SW 233 0 min 0,000 mm 0 W/m 9,0 C 11,4 C 1,6 km/h (1 Bft) 100 %
21.08.2014 03:10 11,4 C 11,4 C 11,4 C 85 % 1016,0 hPa 0,0 l/m 0,0 km/h (0 Bft) SW 233 0 min 0,000 mm 0 W/m 9,0 C 11,4 C 0,0 km/h (0 Bft) 99 %
21.08.2014 03:20 11,2 C 11,2 C 11,4 C 85 % 1016,0 hPa 0,0 l/m 0,0 km/h (0 Bft) SW 233 0 min 0,000 mm 0 W/m 8,8 C 11,2 C 0,0 km/h (0 Bft) 100 %
21.08.2014 03:30 11,0 C 11,0 C 11,2 C 86 % 1016,2 hPa 0,0 l/m 0,0 km/h (0 Bft) SW 233 0 min 0,000 mm 0 W/m 8,7 C 11,0 C 1,6 km/h (1 Bft) 100 %
21.08.2014 03:40 10,8 C 10,8 C 11,0 C 86 % 1016,3 hPa 0,0 l/m 0,1 km/h (0 Bft) SW 233 0 min 0,000 mm 0 W/m 8,6 C 10,8 C 1,6 km/h (1 Bft) 100 %
21.08.2014 03:50 10,8 C 10,8 C 10,8 C 86 % 1016,3 hPa 0,0 l/m 0,2 km/h (0 Bft) SW 233 0 min 0,000 mm 0 W/m 8,6 C 10,8 C 4,8 km/h (1 Bft) 100 %
21.08.2014 04:01 10,9 C 10,8 C 10,9 C 86 % 1016,2 hPa 0,0 l/m 0,3 km/h (0 Bft) SW 233 0 min 0,000 mm 0 W/m 8,7 C 10,9 C 3,2 km/h (1 Bft) 99 %
21.08.2014 04:10 11,1 C 10,9 C 11,1 C 85 % 1016,1 hPa 0,0 l/m 0,1 km/h (0 Bft) SW 233 0 min 0,000 mm 0 W/m 8,7 C 11,1 C 3,2 km/h (1 Bft) 100 %
21.08.2014 04:20 11,1 C 11,1 C 11,1 C 86 % 1016,2 hPa 0,0 l/m 0,1 km/h (0 Bft) SW 233 0 min 0,000 mm 0 W/m 8,8 C 11,1 C 3,2 km/h (1 Bft) 99 %
21.08.2014 04:30 11,0 C 11,0 C 11,1 C 86 % 1016,1 hPa 0,0 l/m 0,0 km/h (0 Bft) SW 233 0 min 0,000 mm 0 W/m 8,7 C 11,0 C 1,6 km/h (1 Bft) 99 %
21.08.2014 04:40 10,9 C 10,9 C 11,0 C 86 % 1016,2 hPa 0,0 l/m 0,4 km/h (0 Bft) SW 233 0 min 0,000 mm 0 W/m 8,7 C 10,9 C 4,8 km/h (1 Bft) 100 %
21.08.2014 04:50 10,8 C 10,8 C 10,9 C 87 % 1016,3 hPa 0,0 l/m 0,0 km/h (0 Bft) SW 233 0 min 0,000 mm 0 W/m 8,7 C 10,8 C 1,6 km/h (1 Bft) 99 %
21.08.2014 05:00 10,6 C 10,6 C 10,8 C 87 % 1016,2 hPa 0,0 l/m 0,0 km/h (0 Bft) SW 233 0 min 0,000 mm 0 W/m 8,5 C 10,6 C 0,0 km/h (0 Bft) 100 %
21.08.2014 05:10 10,3 C 10,3 C 10,6 C 87 % 1016,3 hPa 0,0 l/m 0,0 km/h (0 Bft) SW 233 0 min 0,000 mm 0 W/m 8,2 C 10,3 C 1,6 km/h (1 Bft) 98 %
21.08.2014 05:20 10,1 C 10,1 C 10,3 C 87 % 1016,3 hPa 0,0 l/m 0,7 km/h (0 Bft) S-SO 165 0 min 0,000 mm 0 W/m 8,0 C 10,1 C 4,8 km/h (1 Bft) 100 %
21.08.2014 05:30 10,1 C 10,1 C 10,2 C 87 % 1016,3 hPa 0,0 l/m 0,0 km/h (0 Bft) S-SO 165 0 min 0,000 mm 0 W/m 8,0 C 10,1 C 1,6 km/h (1 Bft) 100 %
21.08.2014 05:40 9,9 C 9,9 C 10,1 C 87 % 1016,2 hPa 0,0 l/m 0,0 km/h (0 Bft) S-SO 165 0 min 0,000 mm 0 W/m 7,8 C 9,9 C 0,0 km/h (0 Bft) 100 %
21.08.2014 05:50 9,6 C 9,6 C 9,9 C 87 % 1016,3 hPa 0,0 l/m 0,1 km/h (0 Bft) S-SO 165 0 min 0,000 mm 0 W/m 7,5 C 9,6 C 1,6 km/h (1 Bft) 100 %
21.08.2014 06:00 9,5 C 9,5 C 9,6 C 87 % 1016,5 hPa 0,0 l/m 0,7 km/h (0 Bft) S-SO 159 0 min 0,000 mm 0 W/m 7,4 C 9,5 C 3,2 km/h (1 Bft) 100 %
21.08.2014 06:10 9,6 C 9,5 C 9,6 C 87 % 1016,5 hPa 0,0 l/m 0,2 km/h (0 Bft) S-SO 153 0 min 0,000 mm 0 W/m 7,5 C 9,6 C 4,8 km/h (1 Bft) 100 %
21.08.2014 06:20 9,6 C 9,6 C 9,6 C 87 % 1016,5 hPa 0,0 l/m 2,7 km/h (1 Bft) SO 136 0 min 0,000 mm 0 W/m 7,5 C 9,6 C 6,4 km/h (2 Bft) 100 %
21.08.2014 06:30 9,6 C 9,6 C 9,6 C 87 % 1016,6 hPa 0,0 l/m 0,8 km/h (0 Bft) SO 136 0 min 0,000 mm 5 W/m 7,5 C 9,6 C 4,8 km/h (1 Bft) 100 %
21.08.2014 06:40 9,6 C 9,6 C 9,6 C 87 % 1016,6 hPa 0,0 l/m 0,1 km/h (0 Bft) SO 136 0 min 0,000 mm 11 W/m 7,5 C 9,6 C 3,2 km/h (1 Bft) 100 %
21.08.2014 06:50 9,6 C 9,6 C 9,6 C 87 % 1016,6 hPa 0,0 l/m 0,5 km/h (0 Bft) SO 136 0 min 0,000 mm 14 W/m 7,5 C 9,6 C 4,8 km/h (1 Bft) 99 %
21.08.2014 07:00 9,4 C 9,4 C 9,6 C 87 % 1016,7 hPa 0,0 l/m 0,3 km/h (0 Bft) SO 136 0 min 0,000 mm 19 W/m 7,3 C 9,4 C 3,2 km/h (1 Bft) 100 %
21.08.2014 07:10 9,4 C 9,4 C 9,4 C 88 % 1016,6 hPa 0,0 l/m 0,3 km/h (0 Bft) SO 136 0 min 0,000 mm 23 W/m 7,5 C 9,4 C 4,8 km/h (1 Bft) 99 %
21.08.2014 07:20 9,4 C 9,4 C 9,4 C 88 % 1016,9 hPa 0,0 l/m 1,1 km/h (1 Bft) SO 136 0 min 0,000 mm 26 W/m 7,5 C 9,4 C 4,8 km/h (1 Bft) 100 %
21.08.2014 07:30 9,5 C 9,4 C 9,5 C 88 % 1016,9 hPa 0,0 l/m 1,1 km/h (1 Bft) SO 136 0 min 0,000 mm 32 W/m 7,6 C 9,5 C 4,8 km/h (1 Bft) 100 %
21.08.2014 07:40 9,6 C 9,5 C 9,6 C 88 % 1016,9 hPa 0,0 l/m 0,5 km/h (0 Bft) S-SO 153 0 min 0,000 mm 35 W/m 7,7 C 9,6 C 6,4 km/h (2 Bft) 100 %
21.08.2014 07:50 9,7 C 9,6 C 9,7 C 88 % 1017,0 hPa 0,0 l/m 0,3 km/h (0 Bft) S-SO 152 0 min 0,000 mm 39 W/m 7,8 C 9,7 C 6,4 km/h (2 Bft) 100 %
21.08.2014 08:00 9,8 C 9,7 C 9,8 C 88 % 1016,9 hPa 0,0 l/m 0,2 km/h (0 Bft) S-SO 152 0 min 0,000 mm 44 W/m 7,9 C 9,8 C 3,2 km/h (1 Bft) 100 %
21.08.2014 08:10 9,9 C 9,8 C 9,9 C 88 % 1017,0 hPa 0,0 l/m 0,0 km/h (0 Bft) S-SO 159 0 min 0,025 mm 47 W/m 8,0 C 9,9 C 1,6 km/h (1 Bft) 100 %
21.08.2014 08:20 10,2 C 9,9 C 10,2 C 88 % 1017,1 hPa 0,0 l/m 0,0 km/h (0 Bft) S-SO 159 0 min 0,000 mm 53 W/m 8,3 C 10,2 C 1,6 km/h (1 Bft) 100 %
21.08.2014 08:30 10,6 C 10,2 C 10,6 C 88 % 1017,1 hPa 0,0 l/m 0,0 km/h (0 Bft) S-SO 167 0 min 0,000 mm 135 W/m 8,7 C 10,6 C 1,6 km/h (1 Bft) 100 %
21.08.2014 08:40 11,1 C 10,6 C 11,1 C 88 % 1017,2 hPa 0,0 l/m 0,7 km/h (0 Bft) SW 217 10 min 0,000 mm 269 W/m 9,2 C 11,1 C 9,7 km/h (2 Bft) 100 %
21.08.2014 08:50 11,9 C 11,1 C 11,9 C 87 % 1017,2 hPa 0,0 l/m 1,7 km/h (1 Bft) S-SW 194 10 min 0,000 mm 308 W/m 9,8 C 11,9 C 9,7 km/h (2 Bft) 100 %
21.08.2014 09:00 12,7 C 11,9 C 12,7 C 85 % 1017,3 hPa 0,0 l/m 1,8 km/h (1 Bft) S-SW 194 10 min 0,000 mm 334 W/m 10,2 C 12,7 C 8,0 km/h (2 Bft) 100 %
21.08.2014 09:10 13,2 C 12,7 C 13,2 C 83 % 1017,4 hPa 0,0 l/m 2,6 km/h (1 Bft) S-SO 151 10 min 0,076 mm 369 W/m 10,4 C 13,2 C 12,9 km/h (3 Bft) 100 %
21.08.2014 09:20 13,8 C 13,2 C 13,8 C 79 % 1017,3 hPa 0,0 l/m 1,2 km/h (1 Bft) W 259 10 min 0,001 mm 399 W/m 10,2 C 13,8 C 9,7 km/h (2 Bft) 100 %
21.08.2014 09:30 14,4 C 13,8 C 14,4 C 82 % 1017,4 hPa 0,0 l/m 0,1 km/h (0 Bft) W-SW 252 10 min 0,000 mm 431 W/m 11,4 C 14,4 C 1,6 km/h (1 Bft) 99 %
21.08.2014 09:40 14,9 C 14,4 C 14,9 C 76 % 1017,3 hPa 0,0 l/m 4,2 km/h (1 Bft) S-SW 208 10 min 0,000 mm 432 W/m 10,7 C 14,9 C 12,9 km/h (3 Bft) 99 %
21.08.2014 09:50 15,2 C 14,9 C 15,2 C 77 % 1017,4 hPa 0,0 l/m 2,3 km/h (1 Bft) W-SW 253 10 min 0,000 mm 482 W/m 11,2 C 15,2 C 11,3 km/h (2 Bft) 100 %
21.08.2014 10:00 15,3 C 15,2 C 15,5 C 72 % 1017,4 hPa 0,0 l/m 2,3 km/h (1 Bft) W-NW 297 10 min 0,000 mm 503 W/m 10,3 C 15,3 C 14,5 km/h (3 Bft) 99 %
21.08.2014 10:10 15,6 C 15,3 C 15,6 C 73 % 1017,4 hPa 0,0 l/m 0,9 km/h (0 Bft) W-NW 284 10 min 0,228 mm 529 W/m 10,8 C 15,6 C 6,4 km/h (2 Bft) 100 %
21.08.2014 10:20 15,8 C 15,6 C 15,8 C 75 % 1017,4 hPa 0,0 l/m 1,9 km/h (1 Bft) W-SW 255 10 min 0,000 mm 561 W/m 11,4 C 15,8 C 8,0 km/h (2 Bft) 100 %
21.08.2014 10:30 16,4 C 15,8 C 16,4 C 69 % 1017,3 hPa 0,0 l/m 3,9 km/h (1 Bft) S-SW 197 10 min 0,000 mm 578 W/m 10,7 C 16,4 C 16,1 km/h (3 Bft) 100 %
21.08.2014 10:40 16,8 C 16,4 C 16,8 C 70 % 1017,3 hPa 0,0 l/m 3,0 km/h (1 Bft) SW 233 10 min 0,000 mm 601 W/m 11,3 C 16,8 C 16,1 km/h (3 Bft) 100 %
21.08.2014 10:50 17,2 C 16,8 C 17,2 C 69 % 1017,3 hPa 0,0 l/m 3,8 km/h (1 Bft) W 279 10 min 0,000 mm 636 W/m 11,5 C 17,2 C 14,5 km/h (3 Bft) 100 %
21.08.2014 11:00 17,2 C 17,1 C 17,2 C 66 % 1017,4 hPa 0,0 l/m 2,4 km/h (1 Bft) W 275 10 min 0,000 mm 661 W/m 10,8 C 17,2 C 11,3 km/h (2 Bft) 100 %
21.08.2014 11:10 17,6 C 17,2 C 17,6 C 67 % 1017,3 hPa 0,0 l/m 1,5 km/h (1 Bft) SW 227 10 min 0,330 mm 728 W/m 11,4 C 17,6 C 9,7 km/h (2 Bft) 100 %
21.08.2014 11:20 17,9 C 17,6 C 17,9 C 62 % 1017,3 hPa 0,0 l/m 3,6 km/h (1 Bft) SW 215 10 min 0,000 mm 357 W/m 10,5 C 17,9 C 14,5 km/h (3 Bft) 100 %
21.08.2014 11:30 18,1 C 17,8 C 18,1 C 65 % 1017,3 hPa 0,0 l/m 3,4 km/h (1 Bft) W-SW 254 10 min 0,000 mm 865 W/m 11,4 C 18,1 C 14,5 km/h (3 Bft) 100 %
21.08.2014 11:40 18,1 C 18,1 C 18,2 C 62 % 1017,3 hPa 0,0 l/m 1,9 km/h (1 Bft) NW 305 10 min 0,000 mm 174 W/m 10,7 C 18,1 C 8,0 km/h (2 Bft) 100 %
21.08.2014 11:50 18,3 C 18,1 C 18,3 C 58 % 1017,1 hPa 0,0 l/m 4,6 km/h (1 Bft) S-SO 157 10 min 0,000 mm 786 W/m 9,9 C 18,3 C 17,7 km/h (3 Bft) 100 %
21.08.2014 12:00 17,8 C 17,8 C 18,3 C 61 % 1017,1 hPa 0,0 l/m 3,1 km/h (1 Bft) SW 218 0 min 0,000 mm 141 W/m 10,2 C 17,8 C 12,9 km/h (3 Bft) 100 %
21.08.2014 12:10 17,6 C 17,6 C 17,8 C 61 % 1017,1 hPa 0,0 l/m 6,1 km/h (2 Bft) W-SW 240 0 min 0,305 mm 144 W/m 10,0 C 17,6 C 14,5 km/h (3 Bft) 99 %
21.08.2014 12:20 16,9 C 16,9 C 17,6 C 61 % 1017,1 hPa 0,0 l/m 5,3 km/h (1 Bft) W-SW 248 0 min 0,000 mm 125 W/m 9,3 C 16,9 C 12,9 km/h (3 Bft) 100 %
21.08.2014 12:30 16,8 C 16,7 C 16,9 C 64 % 1017,1 hPa 0,0 l/m 3,5 km/h (1 Bft) SW 219 10 min 0,000 mm 381 W/m 10,0 C 16,8 C 12,9 km/h (3 Bft) 100 %
21.08.2014 12:40 17,2 C 16,8 C 17,2 C 65 % 1017,1 hPa 0,0 l/m 4,7 km/h (1 Bft) W 267 10 min 0,000 mm 192 W/m 10,6 C 17,2 C 11,3 km/h (2 Bft) 100 %
21.08.2014 12:50 17,4 C 17,2 C 17,4 C 62 % 1017,1 hPa 0,0 l/m 2,3 km/h (1 Bft) W-SW 252 10 min 0,000 mm 919 W/m 10,0 C 17,4 C 9,7 km/h (2 Bft) 91 %
21.08.2014 13:00 17,9 C 17,4 C 17,9 C 59 % 1017,1 hPa 0,0 l/m 5,9 km/h (2 Bft) SW 218 10 min 0,000 mm 250 W/m 9,8 C 17,9 C 19,3 km/h (3 Bft) 100 %
21.08.2014 13:10 18,4 C 17,9 C 18,4 C 58 % 1017,1 hPa 0,0 l/m 6,9 km/h (2 Bft) W 272 10 min 0,229 mm 865 W/m 10,0 C 18,2 C 19,3 km/h (3 Bft) 99 %
21.08.2014 13:20 18,8 C 18,4 C 18,8 C 55 % 1016,9 hPa 0,0 l/m 7,2 km/h (2 Bft) W-SW 252 10 min 0,000 mm 329 W/m 9,6 C 18,4 C 16,1 km/h (3 Bft) 100 %
21.08.2014 13:30 18,3 C 18,3 C 18,8 C 57 % 1016,9 hPa 0,0 l/m 8,1 km/h (2 Bft) SW 222 10 min 0,000 mm 162 W/m 9,6 C 17,5 C 19,3 km/h (3 Bft) 99 %
21.08.2014 13:40 18,1 C 18,0 C 18,3 C 57 % 1016,8 hPa 0,0 l/m 5,0 km/h (1 Bft) NW 310 10 min 0,000 mm 923 W/m 9,4 C 18,1 C 12,9 km/h (3 Bft) 100 %
21.08.2014 13:50 18,8 C 18,1 C 18,8 C 53 % 1016,8 hPa 0,0 l/m 10,1 km/h (2 Bft) W 263 10 min 0,000 mm 819 W/m 9,0 C 17,3 C 20,9 km/h (4 Bft) 99 %
21.08.2014 14:00 19,0 C 18,8 C 19,1 C 55 % 1016,7 hPa 0,0 l/m 2,4 km/h (1 Bft) SW 223 0 min 0,000 mm 86 W/m 9,8 C 19,0 C 11,3 km/h (2 Bft) 100 %
21.08.2014 14:10 18,9 C 18,9 C 19,1 C 50 % 1016,7 hPa 0,0 l/m 7,0 km/h (2 Bft) W-SW 241 10 min 0,381 mm 172 W/m 8,2 C 18,6 C 17,7 km/h (3 Bft) 100 %
21.08.2014 14:20 18,3 C 18,3 C 18,9 C 53 % 1016,7 hPa 0,0 l/m 7,3 km/h (2 Bft) SW 225 10 min 0,000 mm 279 W/m 8,6 C 17,9 C 16,1 km/h (3 Bft) 99 %
21.08.2014 14:30 18,7 C 18,2 C 18,7 C 55 % 1016,6 hPa 0,0 l/m 5,7 km/h (1 Bft) NW 323 10 min 0,000 mm 881 W/m 9,5 C 18,7 C 19,3 km/h (3 Bft) 100 %
21.08.2014 14:40 19,2 C 18,7 C 19,2 C 52 % 1016,5 hPa 0,0 l/m 9,6 km/h (2 Bft) W-NW 299 10 min 0,000 mm 246 W/m 9,1 C 17,9 C 25,7 km/h (4 Bft) 100 %
21.08.2014 14:50 19,2 C 19,1 C 19,2 C 53 % 1016,5 hPa 0,0 l/m 9,7 km/h (2 Bft) W-SW 246 10 min 0,000 mm 835 W/m 9,4 C 17,9 C 19,3 km/h (3 Bft) 100 %
21.08.2014 15:00 19,7 C 19,2 C 19,7 C 52 % 1016,4 hPa 0,0 l/m 10,1 km/h (2 Bft) NW 310 10 min 0,000 mm 765 W/m 9,6 C 18,3 C 22,5 km/h (4 Bft) 100 %
21.08.2014 15:10 20,1 C 19,7 C 20,2 C 49 % 1016,3 hPa 0,0 l/m 7,9 km/h (2 Bft) W 274 10 min 0,406 mm 747 W/m 9,0 C 19,5 C 22,5 km/h (4 Bft) 100 %
21.08.2014 15:20 20,3 C 20,1 C 20,4 C 49 % 1016,3 hPa 0,0 l/m 5,7 km/h (1 Bft) S 188 10 min 0,000 mm 766 W/m 9,2 C 20,3 C 16,1 km/h (3 Bft) 100 %
21.08.2014 15:30 19,8 C 19,8 C 20,3 C 49 % 1016,1 hPa 0,0 l/m 10,5 km/h (2 Bft) SW 236 10 min 0,000 mm 756 W/m 8,8 C 18,3 C 24,1 km/h (4 Bft) 99 %
21.08.2014 15:40 20,1 C 19,8 C 20,1 C 48 % 1015,9 hPa 0,0 l/m 8,4 km/h (2 Bft) NW 310 10 min 0,000 mm 728 W/m 8,7 C 19,3 C 25,7 km/h (4 Bft) 99 %
21.08.2014 15:50 20,2 C 20,1 C 20,2 C 48 % 1016,0 hPa 0,0 l/m 8,3 km/h (2 Bft) W-SW 250 10 min 0,000 mm 548 W/m 8,8 C 19,4 C 17,7 km/h (3 Bft) 100 %
21.08.2014 16:00 19,9 C 19,9 C 20,2 C 48 % 1015,9 hPa 0,0 l/m 8,5 km/h (2 Bft) S-SO 150 10 min 0,000 mm 323 W/m 8,6 C 19,1 C 20,9 km/h (4 Bft) 100 %
21.08.2014 16:10 19,8 C 19,8 C 19,9 C 50 % 1015,8 hPa 0,0 l/m 8,3 km/h (2 Bft) W-NW 302 10 min 0,406 mm 227 W/m 9,1 C 19,0 C 22,5 km/h (4 Bft) 100 %
21.08.2014 16:20 19,6 C 19,6 C 19,8 C 49 % 1015,9 hPa 0,0 l/m 10,6 km/h (2 Bft) W-NW 297 10 min 0,001 mm 220 W/m 8,6 C 18,0 C 22,5 km/h (4 Bft) 100 %
21.08.2014 16:30 19,7 C 19,6 C 19,7 C 49 % 1015,9 hPa 0,0 l/m 8,8 km/h (2 Bft) W-NW 297 0 min 0,000 mm 105 W/m 8,7 C 18,7 C 22,5 km/h (4 Bft) 100 %
21.08.2014 16:40 19,3 C 19,3 C 19,7 C 46 % 1015,8 hPa 0,0 l/m 8,8 km/h (2 Bft) W-SW 257 0 min 0,000 mm 109 W/m 7,4 C 18,3 C 22,5 km/h (4 Bft) 100 %
21.08.2014 16:50 19,1 C 19,0 C 19,3 C 50 % 1015,6 hPa 0,0 l/m 6,3 km/h (2 Bft) W-NW 299 0 min 0,000 mm 111 W/m 8,4 C 19,1 C 17,7 km/h (3 Bft) 100 %
21.08.2014 17:00 18,7 C 18,7 C 19,1 C 49 % 1015,6 hPa 0,0 l/m 6,6 km/h (2 Bft) W-SW 239 0 min 0,000 mm 146 W/m 7,8 C 18,6 C 19,3 km/h (3 Bft) 100 %
21.08.2014 17:10 18,8 C 18,6 C 18,8 C 54 % 1015,4 hPa 0,0 l/m 2,1 km/h (1 Bft) S-SW 205 10 min 0,152 mm 171 W/m 9,3 C 18,8 C 9,7 km/h (2 Bft) 100 %
21.08.2014 17:20 18,9 C 18,8 C 18,9 C 49 % 1015,5 hPa 0,0 l/m 6,1 km/h (2 Bft) W 259 10 min 0,000 mm 176 W/m 7,9 C 18,9 C 17,7 km/h (3 Bft) 100 %
21.08.2014 17:30 18,6 C 18,6 C 18,9 C 51 % 1015,4 hPa 0,0 l/m 5,1 km/h (1 Bft) S-SW 205 0 min 0,000 mm 151 W/m 8,3 C 18,6 C 14,5 km/h (3 Bft) 100 %
21.08.2014 17:40 18,6 C 18,5 C 18,6 C 49 % 1015,5 hPa 0,0 l/m 6,2 km/h (2 Bft) W-SW 257 0 min 0,000 mm 139 W/m 7,7 C 18,6 C 20,9 km/h (4 Bft) 100 %
21.08.2014 17:50 18,7 C 18,6 C 18,7 C 50 % 1015,5 hPa 0,0 l/m 4,3 km/h (1 Bft) SW 223 0 min 0,000 mm 114 W/m 8,1 C 18,7 C 16,1 km/h (3 Bft) 100 %
21.08.2014 18:00 18,9 C 18,7 C 18,9 C 50 % 1015,3 hPa 0,0 l/m 2,8 km/h (1 Bft) SW 233 0 min 0,000 mm 97 W/m 8,2 C 18,9 C 12,9 km/h (3 Bft) 99 %
21.08.2014 18:10 19,1 C 18,9 C 19,1 C 48 % 1015,4 hPa 0,0 l/m 5,2 km/h (1 Bft) W-SW 256 0 min 0,127 mm 74 W/m 7,8 C 19,1 C 17,7 km/h (3 Bft) 100 %
21.08.2014 18:20 19,1 C 19,1 C 19,1 C 47 % 1015,4 hPa 0,0 l/m 8,1 km/h (2 Bft) W 271 0 min 0,000 mm 54 W/m 7,5 C 18,4 C 19,3 km/h (3 Bft) 100 %
21.08.2014 18:30 18,9 C 18,9 C 19,1 C 48 % 1015,4 hPa 0,0 l/m 4,8 km/h (1 Bft) W-NW 283 0 min 0,000 mm 53 W/m 7,6 C 18,9 C 16,1 km/h (3 Bft) 100 %
21.08.2014 18:40 18,8 C 18,8 C 18,9 C 48 % 1015,3 hPa 0,0 l/m 4,5 km/h (1 Bft) W-NW 286 0 min 0,000 mm 53 W/m 7,6 C 18,8 C 19,3 km/h (3 Bft) 100 %
21.08.2014 18:50 18,6 C 18,6 C 18,8 C 47 % 1015,4 hPa 0,0 l/m 6,2 km/h (2 Bft) W 271 0 min 0,000 mm 53 W/m 7,1 C 18,6 C 16,1 km/h (3 Bft) 99 %
21.08.2014 19:00 18,4 C 18,4 C 18,6 C 49 % 1015,3 hPa 0,0 l/m 3,9 km/h (1 Bft) W-SW 254 0 min 0,000 mm 47 W/m 7,5 C 18,4 C 11,3 km/h (2 Bft) 100 %
21.08.2014 19:10 18,2 C 18,2 C 18,4 C 49 % 1015,3 hPa 0,0 l/m 1,7 km/h (1 Bft) W-SW 256 0 min 0,076 mm 40 W/m 7,3 C 18,2 C 9,7 km/h (2 Bft) 100 %
21.08.2014 19:20 17,9 C 17,9 C 18,2 C 50 % 1015,3 hPa 0,0 l/m 1,9 km/h (1 Bft) W-SW 253 0 min 0,000 mm 35 W/m 7,3 C 17,9 C 14,5 km/h (3 Bft) 100 %
21.08.2014 19:30 17,7 C 17,7 C 17,9 C 49 % 1015,3 hPa 0,0 l/m 3,9 km/h (1 Bft) W 279 0 min 0,000 mm 32 W/m 6,9 C 17,7 C 14,5 km/h (3 Bft) 99 %
21.08.2014 19:40 17,5 C 17,5 C 17,7 C 50 % 1015,2 hPa 0,0 l/m 2,5 km/h (1 Bft) W 271 0 min 0,000 mm 28 W/m 7,0 C 17,5 C 9,7 km/h (2 Bft) 100 %
21.08.2014 19:50 17,3 C 17,3 C 17,5 C 50 % 1015,3 hPa 0,0 l/m 1,1 km/h (1 Bft) W 278 0 min 0,000 mm 23 W/m 6,8 C 17,3 C 6,4 km/h (2 Bft) 100 %
21.08.2014 20:00 17,0 C 17,0 C 17,3 C 52 % 1015,4 hPa 0,0 l/m 0,6 km/h (0 Bft) W 278 0 min 0,000 mm 18 W/m 7,1 C 17,0 C 4,8 km/h (1 Bft) 100 %
21.08.2014 20:10 16,7 C 16,7 C 17,0 C 53 % 1015,4 hPa 0,0 l/m 0,2 km/h (0 Bft) W 278 0 min 0,051 mm 11 W/m 7,1 C 16,7 C 3,2 km/h (1 Bft) 100 %
21.08.2014 20:20 16,3 C 16,3 C 16,7 C 54 % 1015,5 hPa 0,0 l/m 0,2 km/h (0 Bft) W 278 0 min 0,000 mm 7 W/m 7,0 C 16,3 C 4,8 km/h (1 Bft) 100 %
21.08.2014 20:30 15,9 C 15,9 C 16,3 C 54 % 1015,5 hPa 0,0 l/m 0,6 km/h (0 Bft) W 278 0 min 0,000 mm 0 W/m 6,6 C 15,9 C 6,4 km/h (2 Bft) 100 %
21.08.2014 20:40 15,6 C 15,6 C 15,9 C 58 % 1015,5 hPa 0,0 l/m 0,0 km/h (0 Bft) W 278 0 min 0,000 mm 0 W/m 7,4 C 15,6 C 0,0 km/h (0 Bft) 100 %
21.08.2014 20:50 15,3 C 15,3 C 15,6 C 60 % 1015,5 hPa 0,0 l/m 0,0 km/h (0 Bft) W 278 0 min 0,000 mm 0 W/m 7,6 C 15,3 C 0,0 km/h (0 Bft) 100 %
21.08.2014 21:00 15,1 C 15,1 C 15,3 C 59 % 1015,6 hPa 0,0 l/m 0,1 km/h (0 Bft) W 278 0 min 0,000 mm 0 W/m 7,1 C 15,1 C 3,2 km/h (1 Bft) 100 %
21.08.2014 21:10 14,8 C 14,8 C 15,1 C 62 % 1015,7 hPa 0,0 l/m 0,0 km/h (0 Bft) W 278 0 min 0,000 mm 0 W/m 7,6 C 14,8 C 0,0 km/h (0 Bft) 100 %
21.08.2014 21:20 14,6 C 14,6 C 14,8 C 64 % 1015,9 hPa 0,0 l/m 0,1 km/h (0 Bft) W 278 0 min 0,000 mm 0 W/m 7,9 C 14,6 C 1,6 km/h (1 Bft) 100 %
21.08.2014 21:30 14,3 C 14,3 C 14,6 C 64 % 1015,8 hPa 0,0 l/m 0,0 km/h (0 Bft) W 278 0 min 0,000 mm 0 W/m 7,6 C 14,3 C 0,0 km/h (0 Bft) 100 %
21.08.2014 21:40 14,1 C 14,1 C 14,3 C 63 % 1015,9 hPa 0,0 l/m 0,0 km/h (0 Bft) W 278 0 min 0,000 mm 0 W/m 7,2 C 14,1 C 1,6 km/h (1 Bft) 100 %
21.08.2014 21:50 14,1 C 14,1 C 14,1 C 62 % 1015,9 hPa 0,0 l/m 0,2 km/h (0 Bft) W 278 0 min 0,000 mm 0 W/m 6,9 C 14,1 C 3,2 km/h (1 Bft) 91 %
21.08.2014 22:00 14,1 C 14,1 C 14,1 C 62 % 1015,8 hPa 0,0 l/m 0,0 km/h (0 Bft) W 278 0 min 0,000 mm 0 W/m 6,9 C 14,1 C 1,6 km/h (1 Bft) 100 %
21.08.2014 22:10 14,1 C 14,1 C 14,1 C 62 % 1015,8 hPa 0,0 l/m 0,0 km/h (0 Bft) W 278 0 min 0,025 mm 0 W/m 6,9 C 14,1 C 1,6 km/h (1 Bft) 100 %
21.08.2014 22:20 13,9 C 13,9 C 14,1 C 64 % 1015,9 hPa 0,0 l/m 0,0 km/h (0 Bft) W 278 0 min 0,000 mm 0 W/m 7,2 C 13,9 C 0,0 km/h (0 Bft) 100 %
21.08.2014 22:30 13,9 C 13,9 C 13,9 C 63 % 1015,9 hPa 0,0 l/m 0,4 km/h (0 Bft) W 278 0 min 0,000 mm 0 W/m 7,0 C 13,9 C 4,8 km/h (1 Bft) 100 %
21.08.2014 22:40 13,9 C 13,8 C 13,9 C 62 % 1015,9 hPa 0,0 l/m 0,2 km/h (0 Bft) W 278 0 min 0,000 mm 0 W/m 6,7 C 13,9 C 3,2 km/h (1 Bft) 100 %
21.08.2014 22:50 13,9 C 13,9 C 13,9 C 62 % 1016,1 hPa 0,0 l/m 0,0 km/h (0 Bft) W 278 0 min 0,000 mm 0 W/m 6,7 C 13,9 C 0,0 km/h (0 Bft) 100 %
21.08.2014 23:00 13,8 C 13,8 C 13,9 C 66 % 1016,0 hPa 0,0 l/m 0,0 km/h (0 Bft) W 278 0 min 0,000 mm 0 W/m 7,6 C 13,8 C 1,6 km/h (1 Bft) 99 %
21.08.2014 23:10 13,7 C 13,7 C 13,8 C 67 % 1016,0 hPa 0,0 l/m 0,0 km/h (0 Bft) W 278 0 min 0,026 mm 0 W/m 7,7 C 13,7 C 1,6 km/h (1 Bft) 100 %
21.08.2014 23:20 13,6 C 13,6 C 13,7 C 66 % 1016,0 hPa 0,0 l/m 0,1 km/h (0 Bft) W 278 0 min 0,000 mm 0 W/m 7,4 C 13,6 C 1,6 km/h (1 Bft) 100 %
21.08.2014 23:30 13,5 C 13,4 C 13,6 C 68 % 1016,1 hPa 0,0 l/m 0,0 km/h (0 Bft) W 278 0 min 0,000 mm 0 W/m 7,7 C 13,5 C 0,0 km/h (0 Bft) 100 %
21.08.2014 23:40 13,3 C 13,3 C 13,5 C 72 % 1016,0 hPa 0,0 l/m 0,0 km/h (0 Bft) W 278 0 min 0,000 mm 0 W/m 8,4 C 13,3 C 0,0 km/h (0 Bft) 99 %
21.08.2014 23:50 12,9 C 12,9 C 13,3 C 75 % 1016,1 hPa 0,0 l/m 0,0 km/h (0 Bft) W 278 0 min 0,000 mm 0 W/m 8,6 C 12,9 C 0,0 km/h (0 Bft) 99 %
_ Min-Zeit 07:00 07:00 07:10 16:40 19:40 - 00:00 - - - - - 20:30 07:00 00:00 12:50
Minimum _ 9,4 C 9,4 C 9,4 C 46 % 1015,2 hPa - 0,0 km/h (0 Bft) - - - - - 6,6 C 9,4 C 0,0 km/h (0 Bft) 91 %
_ Max-Zeit 15:20 15:20 15:20 07:10 09:10 00:00 16:20 - - 08:40 15:10 13:40 10:50 15:20 14:40 00:10
Maximum _ 20,4 C 20,1 C 20,4 C 88 % 1017,4 hPa 0,0 l/m 10,6 km/h
W-NW (2 Bft)
- - 10 min 0,406 mm 923 W/m 11,5 C 20,3 C 25,7 km/h
W-NW (4 Bft)
100 %
Durchschnitt _ 14,7 C 14,6 C 14,8 C 69 % 1016,3 hPa #0,0 l/m 2,4 km/h (1 Bft) W-SW - #7:30 h #2,845 mm 300 W/m 8,6 C 14,6 C 8,4 km/h (2 Bft) 100 %
PRIVATE WETTERSTATION BILLIGHEIM-ALLFELD - www.neckar-odenwald-wetter.de - Holger Sonntag